User: anonymous   Login
Location: Wildcat Hills Observatory
(41.6350°N, 103.6812°W)
Time: 21:30:23
(UTC-07:00)
Language:

Cosmos 1634 Rocket - Orbit

View from above orbital plane
View from above orbital plane
View from above satellite
View from above satellite

Ground track
Ground track

The orbit data is extracted from the following two-line orbital elements,

1 15598U 85022B   17052.91119313  .00000082  00000-0  67372-4 0  9997
2 15598  82.9387 192.7809 0023290  73.2175  37.9164 13.76566328604607
Epoch (UTC): 21 February 2017 21:52:07
Eccentricity: 0.0023290
inclination: 82.9387°
perigee height: 959 km
apogee height: 993 km
right ascension of ascending node: 192.7809°
argument of perigee: 73.2175°
revolutions per day: 13.76566328
mean anomaly at epoch: 37.9164°
orbit number at epoch: 60460

The dashed part of the orbit path shows where the satellite is in the earth's shadow,  

DLR